This is the latest recevied weather packets stored in our database for station/object HK4K-15. If no packets are shown the sender has not sent any weather packets the latest 10 day(s).
| Time | Temp. | Humidity | Pressure | Rain* | Wind** | Luminosity | Snow |
|---|---|---|---|---|---|---|---|
| 1788547956 | 26.67° C | 44% | 1008 hPa | 0 mm | - | - | - |
| 1788546936 | 26.11° C | 43% | 1009 hPa | 0 mm | - | - | - |
| 1788545915 | 26.67° C | 43% | 1010 hPa | 0 mm | - | - | - |
| 1788544895 | 27.22° C | 43% | 1010 hPa | 0 mm | - | - | - |
| 1788543874 | 26.11° C | 45% | 1010 hPa | 0 mm | - | - | - |
| 1788542854 | 26.11° C | 46% | 1012 hPa | 0 mm | - | - | - |
| 1788541833 | 26.11° C | 45% | 1011 hPa | 0 mm | - | - | - |
| 1788540813 | 26.11° C | 45% | 1011 hPa | 0 mm | - | - | - |
| 1788539792 | 25.56° C | 48% | 1012 hPa | 0 mm | - | - | - |
| 1788538772 | 25° C | 53% | 1013 hPa | 0 mm | - | - | - |
| 1788537751 | 25.56° C | 52% | 1013 hPa | 0 mm | - | - | - |
| 1788536746 | 25.56° C | 53% | 1013 hPa | 0 mm | - | - | - |
| 1788535710 | 23.89° C | 59% | 1014 hPa | 0 mm | - | - | - |
| 1788534690 | 23.89° C | 58% | 1014 hPa | 0 mm | - | - | - |
| 1788533669 | 24.44° C | 58% | 1013 hPa | 0 mm | - | - | - |
| 1788532649 | 22.22° C | 60% | 1014 hPa | 0 mm | - | - | - |
| 1788531628 | 22.22° C | 62% | 1015 hPa | 0 mm | - | - | - |
| 1788530608 | 21.67° C | 65% | 1015 hPa | 0 mm | - | - | - |
| 1788529587 | 22.22° C | 64% | 1015 hPa | 0 mm | - | - | - |
| 1788528567 | 18.33° C | 82% | 1016 hPa | 0 mm | - | - | - |
| 1788527546 | 18.89° C | 81% | 1016 hPa | 0 mm | - | - | - |
| 1788526526 | 19.44° C | 79% | 1016 hPa | 0 mm | - | - | - |
| 1788525505 | 20° C | 78% | 1017 hPa | 0 mm | - | - | - |
| 1788524485 | 15.56° C | 99% | 1018 hPa | 0 mm | - | - | - |
| 1788523464 | 15.56° C | 10% | - | 0 mm | - | - | - |
* Rain latest hour (hover to see other rain measurements)
** Current wind speed in m/s (hover to see current wind gust speed)